Welcome to the New NWS' Forecast!
Most changes are behind the scenes, but click here for differences you might notice.

Regional Weather Roundup (RWR)

Issued by Gray - Portland, ME (GYX)

                            
000
ASUS41 KGYX 191810
RWRGYX
WEATHER ROUNDUP FOR MAINE AND NEW HAMPSHIRE
NATIONAL WEATHER SERVICE GRAY ME
100 PM EST MON NOV 19 2018

MEZ002-005-006-010-012-015-018-020-021-024-026-027-029-191900-
MAINE
  
CITY           SKY/WX    TMP DP  RH WIND       PRES   REMARKS
PORTLAND       CLOUDY    34  33  96 N5        30.09F FOG              
6HR MIN TEMP:  32; 6HR MAX TEMP:  34; 6HR PCP:  0.07;                

SANFORD        MIX PCPN  33  32  96 CALM      30.08F                  
BAR HARBOR     MIX PCPN  32  29  88 N5        30.10F                  
WISCASSET      CLOUDY    34  34 100 CALM      30.10F FOG              
6HR MIN TEMP:  30; 6HR MAX TEMP:  34; 6HR PCP:  0.06;                

ROCKLAND       LGT RAIN  36  36 100 N5        30.08F FOG              
FRYEBURG       CLOUDY    32  23  69 CALM      30.07F                  
6HR MIN TEMP:  26; 6HR MAX TEMP:  32;                                

LEWISTONAUBURN CLOUDY    33  29  85 N3        30.08F                  
AUGUSTA        CLOUDY    30  27  88 N3        30.08F                  
6HR MIN TEMP:  25; 6HR MAX TEMP:  30; 6HR PCP:  0.02;                

WATERVILLE     CLOUDY    29  26  89 MISG      30.06F                  
BANGOR         FLURRIES  29  27  92 N6        30.10F                  
6HR MIN TEMP:  22; 6HR MAX TEMP:  29; 6HR PCP:  0.01;                

GREENVILLE       N/A     24  16  71 SE6       29.98F                  
6HR MIN TEMP:  20; 6HR MAX TEMP:  24;                                

MILLINOCKET    CLOUDY    29  20  69 VRB5      30.08F                  
6HR MIN TEMP:  12; 6HR MAX TEMP:  29;                                

HOULTON        CLOUDY    27  20  75 S7        30.07F                  
6HR MIN TEMP:   4; 6HR MAX TEMP:  28;                                

PRESQUE ISLE   CLOUDY    24  16  71 SE6       30.05F                  
6HR MIN TEMP:   6; 6HR MAX TEMP:  27;                                

FRENCHVILLE    CLOUDY    20  12  71 E5        29.99F                  
6HR MIN TEMP:   7; 6HR MAX TEMP:  20;                                

CARIBOU        CLOUDY    22  14  71 SE6       30.03F                  
6HR MIN TEMP:   3; 6HR MAX TEMP:  22;                                

$$

NHZ002-005-008-009-011-012-014-191900-
NEW HAMPSHIRE
  
CITY           SKY/WX    TMP DP  RH WIND       PRES   REMARKS
PORTSMOUTH     CLOUDY    35  33  96 NW6       30.06F FOG              
ROCHESTER      CLOUDY    33  33 100 NW6       30.06F FOG              
6HR MIN TEMP:  30; 6HR MAX TEMP:  33; 6HR PCP:  0.09;                

NASHUA         CLOUDY    36  35  96 CALM      30.08F                  
MANCHESTER     CLOUDY    35  32  88 N3        30.06F FOG              
6HR MIN TEMP:  32; 6HR MAX TEMP:  35; 6HR PCP:  0.04;                

CONCORD        CLOUDY    33  31  92 CALM      30.08F                  
6HR MIN TEMP:  30; 6HR MAX TEMP:  34; 6HR PCP:  0.03;                

LACONIA        CLOUDY    35  32  88 CALM      30.07F                  
PLYMOUTH       CLOUDY    33  28  81 CALM      30.07F                  
BERLIN         CLOUDY    31  22  69 CALM      30.01F                  
6HR MIN TEMP:  22; 6HR MAX TEMP:  31;                                

WHITEFIELD     CLOUDY    33  24  69 CALM      30.02F                  
6HR MIN TEMP:  25; 6HR MAX TEMP:  33;                                

JAFFREY        CLOUDY    33  33 100 CALM      30.04F FOG              
6HR MIN TEMP:  30; 6HR MAX TEMP:  33; 6HR PCP:  0.02;                

KEENE          CLOUDY    37  33  85 CALM      30.08F                  
LEBANON        CLOUDY    37  29  72 CALM      30.04F                  
6HR MIN TEMP:  32; 6HR MAX TEMP:  37;                                

MT WASHINGTON  SNOWSHWR  19  19 100 W33         N/A  VSB 0   WCI   0  
6HR MIN TEMP:  16; 6HR MAX TEMP:  20; 6HR PCP:  0.02;                

$$

VTZ005-007-008-191900-
VERMONT
  
CITY           SKY/WX    TMP DP  RH WIND       PRES   REMARKS
ST JOHNSBURY     N/A     36  30  79 MISG      30.01F                  
MONTPELIER     FAIR      38  30  73 SW9       30.04F                  
BURLINGTON     PTSUNNY   39  30  70 SE5       30.04F                  
$$

MAZ007-012-024-CTZ003-RIZ002-NYZ038-NYZ072-191900-
SOUTHERN NEW ENGLAND AND NY
  
CITY           SKY/WX    TMP DP  RH WIND       PRES   REMARKS
BOSTON         CLOUDY    39  36  89 NW7       30.08F FOG              
WORCESTER      CLOUDY    34  34 100 W3        30.03F FOG              
NANTUCKET      FAIR      54  43  66 W7        30.06F                  
PROVIDENCE     CLOUDY    47  37  68 CALM      30.06F                  
HARTFORD       CLOUDY    37  34  89 NE3       30.07F                  
ALBANY         CLOUDY    39  33  79 CALM      30.09F                  
NEW YORK CITY  PTSUNNY   51  39  63 NE3       30.05F                  
$$

ANZ081-ANZ082-ANZ150-NHZ014-MEZ023>029-191900-
COASTAL MARINE OBSERVATIONS
  
STATION/POSITION TIME  TEMP    WIND        PRES    WAVE
                       AIR SEA DIR/SP/G            HT/PER
                 (UTC) (F)     (DEG/KT/KT) (MB)    (FT/S)
MOUNT DESERT ROC 1800   42     160/  9/ 11 1018.6F
MATINICUS ROCK   1700   41      CALM  /  2 1018.8F
ISLE OF SHOALS   1700   40      30/  8/  9 1018.3F
CASHES LEDGE BUO 1750   45 50              1017.7F   2/ 9
$$

.............KEY..............
   WCI - WIND CHILL
   TC  - TEMPERATURE IN CELSIUS
   VSB - VISIBILITY IN MILES
   HX  - HEAT INDEX
   FAIR- INDICATES FEW OR NO CLOUDS BELOW 12,000 FT, WITH NO 
         SIGNIFICANT WEATHER AND/OR OBSTRUCTIONS TO VISIBILITY.